User: anonymous   Login
Location: San Bernardino
(34.1083°N, 117.2898°W)
Time: 01:38:16
(UTC+00:00)
Language:

ATLAS 2AS CENTAUR R/B - Orbit

View from above orbital plane
View from above orbital plane
View from above satellite
View from above satellite

Ground track
Ground track

The orbit data is extracted from the following two-line orbital elements,

1 28096U 03054B   24175.06792714 -.00000030  00000-0  99556-4 0  9994
2 28096  63.6798  63.2155 0117440 168.9781 191.3860 13.40975819  5319
Epoch (UTC): 23 June 2024 01:37:48
Eccentricity: 0.0117440
inclination: 63.6798°
perigee height: 1018 km
apogee height: 1193 km
right ascension of ascending node: 63.2155°
argument of perigee: 168.9781°
revolutions per day: 13.40975819
mean anomaly at epoch: 191.3860°
orbit number at epoch: 531

The dashed part of the orbit path shows where the satellite is in the earth's shadow,  

DLR